Total_Precipitation_Accumulation
1.98 2.23 2.89 2.87 2.90 3.06 3.14 3.05 3.10 3.07 3.02 3.19 3.39 3.51 3.57 3.92 4.09 4.27 4.41 4.83 5.34 5.67 6.00 6.41 6.20 5.73 5.55 5.29 4.92 4.46 4.14 3.94 3.86 3.73 3.63 3.39 3.22 3.25 3.46 3.65 3.55 2.69 2.57
1.57 1.92 2.58 2.72 2.71 2.68 2.73 2.62 2.69 2.88 2.93 2.94 3.24 3.60 3.60 3.89 4.12 4.16 4.54 5.02 5.43 5.58 5.68 5.89 5.79 5.30 5.11 4.78 4.33 3.94 3.83 3.85 4.09 4.16 4.05 3.63 3.58 3.63 3.66 3.46 3.55 2.65 2.52
1.35 1.68 2.09 2.47 2.48 2.38 2.30 2.37 2.49 2.57 2.69 2.78 3.16 3.62 3.60 3.80 4.07 4.23 4.64 5.02 5.29 5.42 5.38 5.48 5.33 4.92 4.70 4.22 3.73 3.60 3.67 3.84 4.24 4.66 4.50 3.35 3.02 3.46 3.40 3.15 2.93 2.58 2.48
1.36 1.62 1.89 2.14 2.16 2.15 2.07 2.23 2.49 2.63 2.72 2.89 3.17 3.58 3.63 3.79 4.01 4.29 4.65 4.75 5.07 5.20 5.24 5.03 4.70 4.44 4.14 3.77 3.60 3.62 3.67 3.78 4.35 4.82 4.26 2.93 2.40 2.79 2.90 2.77 2.74 2.40 2.31
1.24 1.48 1.89 1.98 1.98 2.04 2.16 2.48 2.74 2.76 2.84 3.04 3.20 3.51 3.72 3.82 3.86 4.27 4.62 4.62 4.75 4.74 4.65 4.39 4.20 4.10 3.72 3.50 3.57 3.58 3.68 4.04 4.44 4.15 3.13 2.86 2.85 2.88 2.69 2.64 2.64 2.32 2.11
1.07 1.25 1.71 1.87 1.72 1.87 2.29 2.57 2.66 2.64 2.68 2.90 3.17 3.48 3.65 3.63 3.80 4.21 4.33 4.28 4.20 4.23 4.22 4.23 4.20 4.01 3.60 3.39 3.47 3.62 3.85 3.94 3.59 2.66 2.35 2.36 2.49 2.75 2.65 2.74 2.60 2.36 2.16
1.09 1.22 1.50 1.68 1.61 1.79 2.15 2.46 2.53 2.49 2.61 2.82 3.15 3.36 3.48 3.56 3.79 4.00 3.86 3.85 3.85 3.80 3.87 4.12 4.27 4.00 3.76 3.75 3.74 3.82 3.70 3.65 2.77 2.09 2.24 2.42 2.23 2.24 2.31 2.71 2.68 2.42 2.19
0.99 1.03 1.23 1.59 1.65 1.76 1.97 2.33 2.57 2.49 2.54 2.68 2.81 3.03 3.15 3.30 3.47 3.54 3.71 3.90 3.86 3.66 3.63 3.79 3.95 3.98 4.19 4.29 4.13 3.89 3.60 3.21 2.21 2.00 2.07 2.06 1.90 1.91 2.04 2.44 2.59 2.59 2.48
0.94 0.97 1.15 1.37 1.51 1.78 2.15 2.42 2.62 2.62 2.68 2.67 2.69 3.00 3.17 3.30 3.27 3.33 3.57 3.78 3.74 3.79 3.60 3.38 3.26 3.23 3.54 3.70 3.55 3.36 3.37 3.21 2.34 2.10 1.84 1.73 1.57 1.69 2.02 2.21 2.30 2.50 2.60
1.10 1.10 1.25 1.39 1.43 1.53 1.89 2.47 2.72 2.87 2.99 3.03 3.11 3.30 3.48 3.72 3.72 3.63 3.39 3.38 3.50 3.57 3.62 3.23 2.95 2.77 2.88 2.82 2.75 2.76 2.90 2.64 2.39 2.20 2.04 1.81 1.64 1.81 2.12 2.21 2.15 2.18 2.19
1.50 1.40 1.45 1.38 1.38 1.47 1.67 2.12 2.60 2.95 3.31 3.51 3.50 3.45 3.64 3.90 3.98 4.04 3.61 3.86 3.81 3.72 3.69 3.36 3.08 2.79 2.72 2.49 2.50 2.72 2.45 2.07 2.18 2.18 2.11 1.94 1.86 2.13 2.39 2.36 2.27 2.16 2.03
1.91 1.62 1.54 1.43 1.45 1.46 1.45 1.85 2.36 2.50 2.91 3.17 3.21 3.19 3.44 3.81 4.07 3.69 4.14 4.47 4.38 4.29 3.99 3.71 3.59 3.05 2.61 2.45 2.87 3.12 2.12 1.85 1.84 1.82 1.87 1.83 2.16 2.56 2.73 2.50 2.32 2.29 2.18
1.83 1.92 1.90 1.75 1.72 1.76 1.98 1.89 2.18 2.54 2.79 2.78 2.74 2.99 3.41 3.44 3.58 3.50 3.82 4.38 4.52 4.54 4.18 3.98 3.83 3.18 3.01 3.29 3.35 2.95 2.27 2.11 2.03 1.99 2.11 2.22 2.49 2.92 3.11 2.81 2.70 2.62 2.53
2.14 2.40 2.56 2.27 2.32 2.32 2.14 2.05 2.15 2.33 2.54 2.71 2.99 3.04 3.19 3.61 3.85 3.70 3.71 3.86 4.19 4.31 4.54 4.24 4.07 3.75 3.56 3.49 3.36 2.92 2.62 2.55 2.53 2.66 2.89 2.57 2.58 2.96 3.23 3.14 3.13 3.05 2.89
2.75 3.03 3.24 2.85 2.82 2.77 2.80 2.77 2.52 2.64 2.73 2.92 3.17 3.35 3.42 3.77 4.07 4.08 3.91 3.85 3.74 3.69 3.95 4.17 4.03 4.07 3.92 3.70 3.41 3.10 2.89 2.71 2.60 2.74 2.92 3.00 2.95 3.03 3.37 3.59 3.56 3.39 3.31
3.16 3.36 3.52 3.42 3.49 3.41 3.25 3.39 3.37 2.97 3.07 3.08 3.20 3.34 3.49 3.74 4.28 4.48 4.27 4.16 3.77 3.55 3.57 3.90 4.00 4.23 4.12 3.87 3.28 3.12 3.00 2.90 2.85 2.72 2.90 3.46 3.53 3.15 3.26 3.65 3.93 4.02 3.91
4.00 3.95 3.99 3.98 4.29 4.21 3.86 3.59 3.33 3.16 3.14 3.37 3.44 3.52 3.56 3.81 4.35 4.43 4.20 3.81 3.48 3.36 3.58 3.68 3.78 4.06 3.85 3.66 3.53 3.48 3.35 3.17 3.00 2.91 2.99 3.54 3.53 3.20 3.15 3.29 3.65 4.03 4.23
4.84 4.76 4.57 4.15 4.55 4.63 4.40 4.23 3.86 3.62 3.67 3.69 3.44 3.58 3.50 3.68 3.66 3.81 3.58 3.27 3.31 3.40 3.57 3.81 3.75 3.87 3.88 3.89 3.94 3.82 3.59 3.39 2.95 2.75 2.64 2.81 3.10 2.81 3.07 3.35 3.51 3.71 4.22
5.30 5.53 5.49 5.37 5.14 4.95 4.77 4.66 4.50 4.38 4.11 3.72 3.56 3.68 3.40 3.06 2.89 3.17 3.23 3.25 3.12 3.28 3.35 3.10 3.52 3.85 3.92 3.90 3.55 3.59 3.19 3.08 2.90 2.54 2.48 2.46 2.64 2.82 2.93 3.04 3.34 3.43 3.93
5.21 5.81 6.00 6.09 5.83 5.38 4.90 4.57 4.52 4.32 4.08 3.79 3.54 3.58 3.15 2.93 2.76 3.13 3.11 3.09 3.02 3.24 3.38 3.42 3.71 3.87 3.56 3.53 3.16 3.10 2.88 2.50 2.52 2.46 2.27 2.37 2.51 2.41 2.64 2.89 3.31 3.12 3.65
4.76 5.49 5.64 6.01 5.62 5.03 4.49 4.06 3.95 3.80 3.50 3.40 3.27 3.22 3.16 2.98 2.96 3.25 3.07 3.19 3.01 3.08 3.08 3.12 3.40 3.56 3.19 3.23 3.73 3.36 2.73 2.32 2.36 2.23 2.25 2.35 2.38 2.44 2.73 3.10 3.37 3.48 3.50
4.10 4.87 4.95 4.66 4.52 4.15 3.81 3.65 3.50 3.47 3.12 2.98 2.89 3.04 2.85 2.74 2.88 2.92 3.10 2.90 2.82 3.00 3.02 3.09 3.38 3.31 2.99 3.21 3.79 3.96 3.42 2.99 2.62 2.16 2.19 2.22 2.30 2.57 2.68 2.79 3.29 3.66 3.65
3.75 3.87 3.56 3.42 3.53 3.52 3.36 3.29 3.19 3.21 3.01 2.80 2.72 2.83 2.70 2.50 2.58 2.65 2.62 2.66 2.80 2.54 2.81 3.12 3.23 3.27 3.23 3.13 3.37 3.91 3.79 3.39 2.97 2.54 2.32 2.37 2.55 2.73 2.83 3.03 3.14 3.42 3.66
2.92 2.80 2.83 2.87 2.95 3.17 3.15 2.98 2.84 2.61 2.55 2.54 2.49 2.59 2.71 2.44 2.29 2.30 2.31 2.53 2.68 2.65 2.99 2.69 2.82 3.11 3.35 3.13 3.12 3.13 3.26 3.53 3.52 3.12 2.68 2.49 2.53 2.65 2.76 2.81 2.96 3.32 3.64
2.20 2.27 2.32 2.71 2.85 2.86 2.86 2.87 2.93 2.65 2.50 2.51 2.67 2.90 2.88 2.53 2.17 2.00 2.17 2.44 2.61 2.68 2.78 2.72 2.84 2.82 2.89 2.90 2.97 2.99 3.19 3.50 3.32 3.20 3.05 2.85 2.65 2.48 2.55 2.69 2.90 3.26 3.39
1.54 1.68 1.85 2.25 2.53 2.57 2.51 2.52 2.57 2.62 2.65 2.51 2.54 2.66 2.60 2.47 2.29 2.09 2.14 2.44 2.56 2.62 2.69 2.74 2.73 2.62 2.69 2.78 2.85 2.88 3.12 3.19 3.22 3.34 3.09 2.84 2.71 2.49 2.43 2.56 2.74 2.87 2.94